Stations météo

réclame
Mon MeteoGroup
Capo Palinuro, Italie (16310): Température de l'air & dewpoint: 20.05.2018 17:00:00 - 26.05.2018 17:00:00 (CEST)Capo Palinuro, Italie (16310): Vitesse du vent: 20.05.2018 17:00:00 - 26.05.2018 17:00:00 (CEST)Capo Palinuro, Italie (16310): Direction du vent: 20.05.2018 17:00:00 - 26.05.2018 17:00:00 (CEST)Capo Palinuro, Italie (16310): reduced air pressure: 20.05.2018 17:00:00 - 26.05.2018 17:00:00 (CEST)Capo Palinuro, Italie (16310): visibility: 20.05.2018 17:00:00 - 26.05.2018 17:00:00 (CEST)Capo Palinuro, Italie (16310): Ensoleillement: 20.05.2018 17:00:00 - 26.05.2018 17:00:00 (CEST)
Date & Time tt [°C] td [°C] ff [km/h] ff [knt] dd ppp [hPa] vv [km] sd [min]
26.05.2018 17:00:00 22,0 19,4 11 6 NE 1016,6 15 30
26.05.2018 16:00:00 22,0 18,6 8 4 ENE 1017,5 15 60
26.05.2018 15:00:00 22,0 18,6 11 6 NW 1017,5 15 60
26.05.2018 14:00:00 21,8 18,4 13 7 ENE 1017,4 15 60
26.05.2018 13:00:00 21,2 18,6 8 4 NE 1017,5 15 60
26.05.2018 12:00:00 20,6 17,2 8 4 NE 1017,3 15 48
26.05.2018 11:00:00 20,0 17,0 4 2 W 1017,3 15 60
26.05.2018 10:00:00 19,4 16,6 11 6 SW 1016,8 20 60
26.05.2018 09:00:00 19,0 16,2 5 3 WSW 1016,7 20 60
26.05.2018 08:00:00 19,0 16,2 5 3 WNW 1016,6 20 60
26.05.2018 07:00:00 18,8 16,2 0 0 N 1016,3 20 24
26.05.2018 06:00:00 18,4 15,8 0 0 N 1016,0 20 -
26.05.2018 05:00:00 18,8 16,0 0 0 N 1015,9 20 -
26.05.2018 04:00:00 18,8 16,0 0 0 N 1015,9 20 -
26.05.2018 03:00:00 19,0 16,2 8 4 NW 1015,8 20 -
26.05.2018 02:00:00 19,0 16,0 0 0 N 1015,8 20 -
26.05.2018 01:00:00 19,0 16,0 4 2 NW 1015,7 20 -
26.05.2018 00:00:00 19,0 16,0 5 3 WNW 1015,7 20 -
25.05.2018 23:00:00 19,0 16,2 0 0 N 1015,6 20 -
25.05.2018 22:00:00 20,0 17,6 0 0 N 1015,4 20 -
25.05.2018 21:00:00 20,0 18,1 0 0 N 1015,2 20 -
25.05.2018 20:00:00 20,8 18,6 0 0 N 1015,1 20 0
25.05.2018 19:00:00 20,8 18,5 8 4 W 1015,1 20 12
25.05.2018 18:00:00 21,2 18,2 5 3 SW 1015,0 20 60
25.05.2018 17:00:00 21,4 18,0 8 4 WSW 1015,2 20 60
25.05.2018 16:00:00 21,4 17,8 0 0 N 1015,3 20 60
25.05.2018 15:00:00 21,6 17,4 0 0 N 1015,5 20 60
25.05.2018 14:00:00 21,4 17,8 5 3 WSW 1015,6 20 60
25.05.2018 13:00:00 21,0 17,8 8 4 SW 1015,6 20 48
25.05.2018 12:00:00 20,2 17,4 5 3 WSW 1015,6 20 12
25.05.2018 11:00:00 20,0 17,4 8 4 SSW 1015,6 20 48
25.05.2018 10:00:00 19,6 16,4 15 8 SSE 1015,6 15 0
25.05.2018 09:00:00 19,4 16,4 8 4 SSE 1015,6 15 0
25.05.2018 08:00:00 19,0 16,2 8 4 SSE 1015,4 15 0
25.05.2018 07:00:00 18,8 16,0 8 4 ESE 1015,7 15 -
25.05.2018 06:00:00 18,4 15,5 4 2 NNE 1015,6 15 -
25.05.2018 05:00:00 18,8 16,0 0 0 N 1015,7 15 -
25.05.2018 04:00:00 18,8 15,9 0 0 N 1015,7 15 -
25.05.2018 03:00:00 18,6 15,5 0 0 N 1015,7 15 -
25.05.2018 02:00:00 18,8 16,0 0 0 N 1015,7 15 -
25.05.2018 01:00:00 18,8 16,0 0 0 N 1015,8 15 -
25.05.2018 00:00:00 18,4 15,7 0 0 N 1015,9 15 -
24.05.2018 23:00:00 18,8 16,0 0 0 N 1015,9 15 -
24.05.2018 22:00:00 19,0 17,0 0 0 N 1015,7 15 -
24.05.2018 21:00:00 19,6 17,5 0 0 N 1015,5 15 -
24.05.2018 20:00:00 20,0 18,0 11 6 NNE 1015,5 15 -
24.05.2018 19:00:00 20,4 18,5 8 4 NNE 1015,3 15 60
24.05.2018 18:00:00 20,8 18,5 11 6 N 1015,5 15 30
24.05.2018 17:00:00 21,0 18,8 8 4 NNE 1015,5 10 30
24.05.2018 16:00:00 20,4 17,6 9 5 NNE 1015,7 15 60
24.05.2018 15:00:00 19,8 17,2 9 5 ESE 1015,9 15 30
24.05.2018 14:00:00 20,0 17,4 18 10 S 1015,8 15 0
24.05.2018 13:00:00 20,0 17,4 11 6 S 1015,8 18 12
24.05.2018 12:00:00 20,0 17,4 11 6 SSE 1015,8 20 60
24.05.2018 11:00:00 19,0 16,0 9 5 S 1015,7 20 60
24.05.2018 10:00:00 18,6 15,5 8 4 ENE 1015,7 15 60
24.05.2018 09:00:00 18,0 14,9 5 3 NNE 1015,6 20 60
24.05.2018 08:00:00 17,6 14,5 4 2 NNE 1015,4 20 60
24.05.2018 07:00:00 17,0 13,9 8 4 WNW 1015,3 20 -
24.05.2018 06:00:00 17,0 13,9 5 3 N 1015,3 20 -
24.05.2018 05:00:00 17,8 14,9 5 3 NW 1015,7 20 -
24.05.2018 04:00:00 17,8 14,9 8 4 NW 1015,7 20 -
24.05.2018 03:00:00 18,0 14,9 8 4 NNW 1015,7 15 -
24.05.2018 02:00:00 18,0 14,9 8 4 NNW 1015,7 10 -
24.05.2018 01:00:00 18,0 15,4 5 3 WNW 1015,2 12 -
24.05.2018 00:00:00 18,0 15,8 11 6 NNW 1015,3 12 -
23.05.2018 23:00:00 18,0 16,0 15 8 N 1015,1 10 -
23.05.2018 22:00:00 18,0 15,4 5 3 N 1015,0 15 -
23.05.2018 21:00:00 18,0 15,6 5 3 NNW 1014,8 15 -
23.05.2018 20:00:00 18,0 15,8 11 6 NW 1014,8 15 -
23.05.2018 19:00:00 19,0 17,0 13 7 WNW 1014,7 15 0
23.05.2018 18:00:00 19,0 16,6 5 3 S 1014,7 15 30
23.05.2018 17:00:00 19,0 16,6 8 4 SSE 1014,7 15 30
23.05.2018 16:00:00 18,0 15,4 5 3 W 1014,7 12 0
23.05.2018 15:00:00 18,0 15,1 11 6 NNW 1014,8 12 0
23.05.2018 14:00:00 17,6 14,9 5 3 SSE 1014,8 10 0
23.05.2018 13:00:00 17,2 14,3 8 4 NNW 1014,8 10 0
23.05.2018 12:00:00 17,4 14,7 2 1 NNW 1014,8 8 0
23.05.2018 11:00:00 17,2 14,5 5 3 NNW 1014,8 8 0
23.05.2018 10:00:00 17,2 14,7 13 7 SSE 1014,2 12 0
23.05.2018 09:00:00 17,2 14,7 11 6 SSW 1014,0 12 0
23.05.2018 08:00:00 17,2 14,8 11 6 WSW 1013,8 12 0
23.05.2018 07:00:00 17,0 14,1 11 6 WSW 1013,7 12 -
23.05.2018 06:00:00 17,0 14,1 13 7 WSW 1013,6 15 -
23.05.2018 05:00:00 17,0 13,9 15 8 S 1013,7 15 -
23.05.2018 04:00:00 17,2 14,3 18 10 WSW 1014,0 15 -
23.05.2018 03:00:00 - - - - - - - -
23.05.2018 02:00:00 18,4 15,8 21 11 WSW 1014,4 15 -
23.05.2018 01:00:00 19,0 16,8 24 13 SW 1014,7 15 -
23.05.2018 00:00:00 21,0 18,9 22 12 SSW 1013,9 20 -
22.05.2018 23:00:00 21,8 16,7 5 3 SSW 1013,1 20 -
22.05.2018 22:00:00 21,8 15,4 0 0 N 1013,0 20 -
22.05.2018 21:00:00 22,0 14,1 0 0 N 1012,9 20 -
22.05.2018 20:00:00 21,8 18,6 0 0 N 1012,9 20 0
22.05.2018 19:00:00 21,8 19,9 9 5 NNW 1012,9 20 0
22.05.2018 18:00:00 22,8 19,2 11 6 NW 1013,0 20 42
22.05.2018 17:00:00 23,2 20,3 8 4 WNW 1013,3 20 18
22.05.2018 16:00:00 23,6 18,3 0 0 N 1013,2 20 36
22.05.2018 15:00:00 23,4 18,7 5 3 S 1013,4 20 60
22.05.2018 14:00:00 22,6 17,3 8 4 SW 1013,8 20 48
22.05.2018 13:00:00 22,4 18,4 8 4 S 1013,9 20 12
22.05.2018 12:00:00 21,6 17,6 0 0 N 1013,8 20 0
22.05.2018 11:00:00 21,8 17,6 8 4 SSW 1013,4 20 48
22.05.2018 10:00:00 21,4 16,4 9 5 SSW 1013,4 20 60
22.05.2018 09:00:00 21,0 17,0 9 5 SSW 1013,2 20 60
22.05.2018 08:00:00 20,0 16,4 9 5 SW 1013,1 20 60
22.05.2018 07:00:00 19,8 15,9 0 0 N 1013,0 15 12
22.05.2018 06:00:00 19,8 17,8 0 0 N 1013,0 15 -
22.05.2018 05:00:00 20,4 16,8 11 6 WNW 1012,7 20 -
22.05.2018 04:00:00 20,6 15,8 9 5 NW 1012,6 20 -
22.05.2018 03:00:00 20,6 15,8 11 6 WNW 1012,6 20 -
22.05.2018 02:00:00 20,6 17,0 9 5 NW 1012,6 20 -
22.05.2018 01:00:00 20,6 16,2 13 7 NW 1012,5 20 -
22.05.2018 00:00:00 20,8 17,8 11 6 WNW 1012,4 20 -
21.05.2018 23:00:00 20,8 19,1 13 7 NW 1012,4 20 -
21.05.2018 22:00:00 21,2 17,2 0 0 N 1012,0 20 -
21.05.2018 21:00:00 20,6 14,9 16 9 N 1012,0 18 -
21.05.2018 20:00:00 20,8 19,1 16 9 N 1011,9 20 0
21.05.2018 19:00:00 22,4 20,9 16 9 SW 1011,9 20 0
21.05.2018 18:00:00 22,8 20,2 21 11 SSW 1012,0 20 36
21.05.2018 17:00:00 23,0 19,0 13 7 SSW 1012,1 20 60
21.05.2018 16:00:00 23,0 19,4 11 6 SSE 1012,2 20 60
21.05.2018 15:00:00 23,0 18,3 13 7 SSE 1012,3 20 60
21.05.2018 14:00:00 23,0 17,2 11 6 SSW 1012,6 20 60
21.05.2018 13:00:00 22,4 18,2 13 7 SSE 1012,7 20 12
21.05.2018 12:00:00 13,0 6,1 9 5 NNE 1013,6 20 48
21.05.2018 11:00:00 22,0 18,2 8 4 ENE 1013,4 20 30
21.05.2018 10:00:00 21,0 17,8 5 3 SE 1013,2 20 18
21.05.2018 09:00:00 21,0 15,8 5 3 SE 1012,8 20 0
21.05.2018 08:00:00 20,6 16,4 5 3 N 1012,7 20 0
21.05.2018 07:00:00 20,2 16,0 4 2 ENE 1012,6 20 -
21.05.2018 06:00:00 20,4 15,6 0 0 N 1012,4 20 -
21.05.2018 05:00:00 20,6 15,8 4 2 NNE 1012,4 20 -
21.05.2018 04:00:00 20,8 15,1 4 2 NNE 1012,4 20 -
21.05.2018 03:00:00 20,8 14,9 0 0 N 1012,4 20 -
21.05.2018 02:00:00 20,6 14,9 0 0 N 1012,4 20 -
21.05.2018 01:00:00 21,0 14,2 0 0 N 1012,4 20 -
21.05.2018 00:00:00 21,0 13,0 4 2 NNE 1012,4 20 -
20.05.2018 23:00:00 20,2 14,8 5 3 N 1012,5 20 -
20.05.2018 22:00:00 20,0 15,7 5 3 NNW 1012,5 20 -
20.05.2018 21:00:00 20,0 18,0 9 5 N 1012,5 20 -
20.05.2018 20:00:00 20,8 16,8 8 4 N 1012,4 20 48
20.05.2018 19:00:00 22,0 18,8 8 4 N 1012,4 20 24
20.05.2018 18:00:00 22,2 19,9 8 4 N 1012,5 20 36
20.05.2018 17:00:00 22,0 18,6 8 4 N 1012,8 20 60

tt = Température de l'air
td = dewpoint
ff = Vitesse du vent
dd = Direction du vent
ppp = reduced air pressure
vv = visibility
sd = Ensoleillement

stations d'obs. à proximité